{"data":{"norad_id":89177,"intl_designator":"","name":"UNKNOWN","alt_names":[],"object_type":"UNKNOWN","status":"UNKNOWN","operator":null,"country":null,"launch_date":null,"launch_site_code":null,"launch_vehicle":null,"mission":null,"orbit_class":"UNKNOWN","rcs_meters":null,"size_class":null,"mass_kg":null,"dimensions":null,"purposes":[],"wikipedia_slug":null,"has_3d_model":false,"image_url":null,"decayed_at":null,"tle_current":{"epoch":"2026-05-19T06:37:48.256608Z","epoch_age_seconds":565659,"freshness":"STALE","line1":"1 89177U          26139.27625297  .00000049  00000+0  35661-4 0  9990","line2":"2 89177  82.9196 152.3367 0033858  65.5704 294.8977 13.73752549 84453","mean_motion":13.73752549,"eccentricity":0.0033858,"inclination_deg":82.9196,"raan_deg":152.3367,"arg_perigee_deg":65.5704,"mean_anomaly_deg":294.8977,"bstar":3.5661e-5,"rev_number":8445,"period_min":104.82237147063,"perigee_km":961.19563408449,"apogee_km":1011.0635015752,"semimajor_km":7364.2665678299,"source":"CELESTRAK","updated_at":"2026-05-25T13:38:11.778479Z"}}}